Retour au catalogue

SL-12 R/B(2)

ActifMEO
NORAD 25900·ROCKET BODY·🇷🇺 Russia

Lancé Sep 6, 1999 depuis Baikonur Cosmodrome

Loading…

Prochains Passages (prochaines 24 heures)

TLE

VieillissantSource: Space-Track

Époque: Aug 29, 2026, 05:43 UTC

1 25900U 99047E   26241.23828310 -.00000320  00000-0  00000+0 0  9992
2 25900  14.5277 358.6259 0101366  64.8798 292.0175  1.00122836 98704

Suivez SL-12 R/B(2) en temps réel avec AllMySat

Download on the App Store